Stations météo

Publicité
Tholey, Allemagne (10706): Température de l'air & dewpoint: 18.09.2020 08:00:00 - 24.09.2020 08:00:00 (CEST)Tholey, Allemagne (10706): Température de l'air 5cm & Température de l'air -5cm: 18.09.2020 08:00:00 - 24.09.2020 08:00:00 (CEST)Tholey, Allemagne (10706): Température de l'air -20cm & Température de l'air -100cm: 18.09.2020 08:00:00 - 24.09.2020 08:00:00 (CEST)Tholey, Allemagne (10706): Vitesse du vent & gusts: 18.09.2020 08:00:00 - 24.09.2020 08:00:00 (CEST)Tholey, Allemagne (10706): Direction du vent: 18.09.2020 08:00:00 - 24.09.2020 08:00:00 (CEST)Tholey, Allemagne (10706): reduced air pressure: 18.09.2020 08:00:00 - 24.09.2020 08:00:00 (CEST)Tholey, Allemagne (10706): visibility: 18.09.2020 08:00:00 - 24.09.2020 08:00:00 (CEST)Tholey, Allemagne (10706): Ensoleillement: 18.09.2020 08:00:00 - 24.09.2020 08:00:00 (CEST)Tholey, Allemagne (10706): Quantités de précipitations: 18.09.2020 08:00:00 - 24.09.2020 08:00:00 (CEST)
Date & Time tt [°C] td [°C] tt 5cm [°C] tt -5cm [°C] tt -20cm [°C] tt -100cm [°C] ff [km/h] ff [knt] fx [km/h] fx [knt] dd ppp [hPa] vv [km] sd [min] rr [mm]
24.09.2020 08:00:00 10,5 9,0 9,5 13,0 18,0 18,4 15 8 30 16 W 1007,8 65 0 0,0
24.09.2020 07:00:00 12,0 9,4 10,8 14,2 18,1 18,4 20 11 54 29 W 1006,7 71 0 0,0
24.09.2020 06:00:00 14,3 13,6 13,9 15,6 18,2 18,4 29 16 44 24 WSW 1005,3 30 0 0,0
24.09.2020 05:00:00 14,6 14,3 14,4 15,8 18,3 18,4 23 12 39 21 WSW 1004,4 11 0 1,9
24.09.2020 04:00:00 14,5 13,7 14,0 15,9 18,5 18,4 21 11 37 20 W 1004,2 8 0 1,9
24.09.2020 03:00:00 15,6 12,5 14,8 16,0 18,6 18,4 13 7 31 17 WSW 1003,7 61 0 0,0
24.09.2020 02:00:00 16,2 12,3 15,0 16,2 18,7 18,4 11 6 22 12 SSW 1003,5 64 0 0,1
24.09.2020 01:00:00 16,7 12,1 14,9 16,2 18,9 18,4 15 8 27 14 SW 1004,1 64 0 0,0
24.09.2020 00:00:00 16,3 12,3 14,8 16,3 19,1 18,4 12 6 22 12 SSW 1004,7 57 0 0,0
23.09.2020 23:00:00 16,4 12,5 15,1 16,5 19,3 18,4 9 5 17 9 SSW 1005,4 62 0 0,0
23.09.2020 22:00:00 16,4 12,7 15,0 17,0 19,5 18,4 9 5 19 10 SSW 1005,6 62 0 0,0
23.09.2020 21:00:00 16,7 13,0 15,4 17,6 19,6 18,4 8 4 16 9 S 1005,5 65 0 0,0
23.09.2020 20:00:00 16,4 13,2 14,5 18,2 19,7 18,4 8 4 14 8 SSW 1005,9 53 0 0,0
23.09.2020 19:00:00 16,7 13,2 15,7 19,3 19,7 18,4 5 3 20 11 SW 1006,1 62 15 0,1
23.09.2020 18:00:00 16,2 13,4 15,3 21,1 19,6 18,4 22 12 40 22 S 1006,6 30 37 0,5
23.09.2020 17:00:00 19,4 12,5 19,9 22,4 19,4 18,4 10 5 21 12 SW 1006,2 75 57 0,0
23.09.2020 16:00:00 18,0 15,1 19,6 21,7 19,2 18,4 12 7 36 19 WSW 1007,2 47 17 1,0
23.09.2020 15:00:00 21,1 11,3 26,0 23,1 19,0 18,4 13 7 27 14 SW 1006,8 47 24 0,0
23.09.2020 14:00:00 18,8 10,9 19,5 21,8 18,7 18,4 20 11 32 17 W 1007,7 51 10 0,0
23.09.2020 13:00:00 19,1 11,8 22,9 22,4 18,5 18,4 14 8 26 14 WSW 1008,0 36 47 0,0
23.09.2020 12:00:00 17,3 11,9 21,8 19,5 18,4 18,4 16 8 23 13 WSW 1008,6 20 18 0,0
23.09.2020 11:00:00 15,5 11,7 17,3 17,7 18,5 18,4 14 8 23 12 WSW 1009,2 23 1 0,0
23.09.2020 10:00:00 14,3 10,7 15,9 17,0 18,6 18,4 16 9 25 13 WSW 1009,2 32 3 0,0
23.09.2020 09:00:00 13,6 7,2 15,4 15,7 18,8 18,4 10 5 12 6 WSW 1009,3 59 28 0,0
23.09.2020 08:00:00 13,1 6,9 11,6 14,8 19,0 18,4 9 5 10 6 WSW 1008,9 55 5 0,0
23.09.2020 07:00:00 14,3 7,1 10,7 15,3 19,2 18,4 7 4 11 6 W 1008,4 54 0 0,0
23.09.2020 06:00:00 14,9 7,0 12,3 16,0 19,4 18,5 10 6 16 9 W 1008,2 52 0 0,0
23.09.2020 05:00:00 15,7 7,1 13,4 16,7 19,6 18,5 9 5 13 7 W 1007,9 47 0 0,0
23.09.2020 04:00:00 16,7 6,9 15,5 17,5 19,7 18,5 10 5 11 6 W 1008,0 53 0 0,0
23.09.2020 03:00:00 16,3 7,7 14,7 17,6 19,9 18,5 5 3 16 9 WSW 1008,1 61 0 0,0
23.09.2020 02:00:00 15,4 7,8 14,8 17,9 20,1 18,5 12 7 15 8 WSW 1008,4 58 0 0,0
23.09.2020 01:00:00 17,4 7,3 15,3 17,9 20,3 18,5 6 4 9 5 WSW 1008,1 50 0 0,0
23.09.2020 00:00:00 18,6 7,2 15,9 18,3 20,5 18,5 8 5 10 5 W 1008,0 50 0 0,0
22.09.2020 23:00:00 19,4 7,0 14,8 18,9 20,8 18,5 3 2 10 5 ESE 1007,8 60 0 0,0
22.09.2020 22:00:00 19,5 7,3 15,3 19,6 21,0 18,5 4 2 6 3 ESE 1008,0 65 0 0,0
22.09.2020 21:00:00 20,4 6,3 15,1 20,6 21,1 18,5 3 1 13 7 WSW 1007,8 63 0 0,0
22.09.2020 20:00:00 21,8 6,4 18,8 22,1 21,1 18,5 10 5 18 10 WNW 1007,5 55 11 0,0
22.09.2020 19:00:00 23,4 8,5 22,2 23,8 21,0 18,5 9 5 29 15 W 1007,4 54 53 0,0
22.09.2020 18:00:00 24,2 7,7 24,9 25,4 20,7 18,5 16 9 29 16 W 1007,3 58 60 0,0
22.09.2020 17:00:00 24,8 7,9 26,8 26,4 20,4 18,5 18 10 29 16 WSW 1008,1 44 46 0,0
22.09.2020 16:00:00 24,5 9,7 27,1 26,7 19,9 18,5 16 9 32 17 W 1008,7 38 41 0,0
22.09.2020 15:00:00 24,2 9,5 29,0 27,4 19,5 18,5 17 9 27 15 WSW 1009,4 53 58 0,0
22.09.2020 14:00:00 22,8 12,8 26,1 26,9 19,0 18,5 13 7 27 14 SSW 1010,1 50 57 0,0
22.09.2020 13:00:00 23,0 12,9 28,4 25,6 18,6 18,5 10 6 19 11 SSE 1010,5 47 60 0,0
22.09.2020 12:00:00 21,9 12,4 25,9 23,2 18,3 18,5 7 4 18 10 S 1011,2 47 60 0,0
22.09.2020 11:00:00 19,0 11,6 22,6 20,6 18,2 18,5 6 3 12 6 SSW 1012,2 45 60 0,0
22.09.2020 10:00:00 17,4 10,3 19,7 17,8 18,3 18,5 3 2 7 4 SSE 1012,6 39 60 0,0
22.09.2020 09:00:00 16,0 9,4 16,3 15,4 18,4 18,5 3 1 8 4 E 1012,8 50 60 0,0
22.09.2020 08:00:00 13,6 8,4 11,2 14,3 18,6 18,5 7 4 9 5 ENE 1013,2 56 8 0,0
22.09.2020 07:00:00 14,0 8,7 9,3 14,5 18,9 18,5 7 4 8 5 ENE 1012,9 48 0 0,0
22.09.2020 06:00:00 14,3 8,6 9,4 14,9 19,1 18,5 3 2 5 3 ENE 1012,9 54 0 0,0
22.09.2020 05:00:00 16,3 9,2 10,0 15,4 19,4 18,5 5 3 5 3 NE 1012,7 57 0 0,0
22.09.2020 04:00:00 15,8 9,0 10,4 15,9 19,6 18,5 5 3 8 4 ENE 1013,1 60 0 0,0
22.09.2020 03:00:00 16,1 8,6 11,8 16,4 19,8 18,5 7 4 9 5 NE 1013,2 54 0 0,0
22.09.2020 02:00:00 17,6 9,1 12,0 16,9 20,1 18,5 7 4 9 5 ENE 1013,2 60 0 0,0
22.09.2020 01:00:00 18,2 8,9 13,5 17,5 20,3 18,5 8 4 13 7 NE 1013,6 57 0 0,0
22.09.2020 00:00:00 18,3 8,4 15,4 18,1 20,5 18,5 11 6 16 9 ENE 1013,9 54 0 0,0
21.09.2020 23:00:00 19,0 7,6 15,4 18,6 20,8 18,6 10 5 12 6 NE 1013,9 57 0 0,0
21.09.2020 22:00:00 19,1 7,1 15,0 19,3 21,0 18,6 9 5 13 7 ENE 1014,0 65 0 0,0
21.09.2020 21:00:00 20,8 7,0 14,6 20,4 21,1 18,6 3 2 8 4 SSE 1013,5 63 0 0,0
21.09.2020 20:00:00 21,1 6,6 17,1 22,0 21,1 18,6 6 3 8 4 SSE 1013,2 64 19 0,0
21.09.2020 19:00:00 22,8 5,6 21,7 23,8 20,9 18,6 5 3 11 6 SSE 1012,9 38 60 0,0
21.09.2020 18:00:00 23,7 4,9 25,4 25,2 20,6 18,6 9 5 14 8 SE 1013,0 43 60 0,0
21.09.2020 17:00:00 24,3 4,9 27,5 26,2 20,2 18,6 7 4 18 10 SE 1013,1 53 60 0,0
21.09.2020 16:00:00 24,5 7,0 28,8 26,7 19,8 18,6 6 3 20 11 ESE 1013,4 49 60 0,0
21.09.2020 15:00:00 24,0 7,1 29,7 26,6 19,3 18,6 10 6 28 15 ESE 1013,7 62 60 0,0
21.09.2020 14:00:00 23,4 6,6 28,9 25,8 18,8 18,6 10 6 23 13 ESE 1014,2 62 60 0,0
21.09.2020 13:00:00 22,4 7,4 22,2 24,6 18,4 18,6 13 7 24 13 ESE 1014,6 46 60 0,0
21.09.2020 12:00:00 21,6 7,6 26,9 23,2 18,1 18,6 10 5 17 9 SE 1015,0 51 60 0,0
21.09.2020 11:00:00 19,7 6,7 23,7 20,7 18,0 18,6 10 5 16 9 E 1015,6 41 60 0,0
21.09.2020 10:00:00 17,8 6,2 20,2 17,6 18,0 18,6 10 6 19 10 ENE 1015,8 72 60 0,0
21.09.2020 09:00:00 15,3 6,2 16,2 15,0 18,2 18,6 8 5 13 7 ENE 1016,2 75 60 0,0
21.09.2020 08:00:00 12,8 5,7 11,4 13,6 18,4 18,6 7 4 15 8 E 1016,1 67 19 0,0
21.09.2020 07:00:00 13,5 5,8 10,0 13,9 18,7 18,6 9 5 20 11 NE 1015,7 63 0 0,0
21.09.2020 06:00:00 14,1 5,6 11,5 14,3 18,9 18,6 13 7 20 11 NNE 1015,6 68 0 0,0
21.09.2020 05:00:00 14,6 5,5 12,1 14,5 19,2 18,6 14 8 21 11 NE 1015,4 60 0 0,0
21.09.2020 04:00:00 15,3 5,7 12,5 14,9 19,5 18,6 13 7 18 10 NE 1015,5 53 0 0,0
21.09.2020 03:00:00 15,2 5,8 12,3 15,3 19,8 18,6 14 7 17 9 NE 1016,0 60 0 0,0
21.09.2020 02:00:00 15,5 6,2 11,4 15,9 20,1 18,6 9 5 14 8 NE 1015,8 66 0 0,0
21.09.2020 01:00:00 16,1 6,1 13,5 16,6 20,4 18,6 12 6 16 9 NE 1015,8 71 0 0,0
21.09.2020 00:00:00 16,5 6,4 13,7 17,3 20,7 18,6 10 6 21 11 NE 1015,9 61 0 0,0
20.09.2020 23:00:00 18,0 6,4 15,2 18,1 21,0 18,6 16 9 20 11 NE 1015,5 53 0 0,0
20.09.2020 22:00:00 18,0 6,3 15,0 18,9 21,2 18,6 11 6 19 10 NE 1015,8 55 0 0,0
20.09.2020 21:00:00 18,9 5,6 16,5 20,0 21,4 18,6 12 7 18 10 NE 1015,4 56 0 0,0
20.09.2020 20:00:00 20,2 4,7 17,0 21,5 21,5 18,6 9 5 17 9 ENE 1014,6 75 3 0,0
20.09.2020 19:00:00 21,5 5,1 20,0 23,6 21,3 18,6 8 5 23 12 ENE 1014,0 53 59 0,0
20.09.2020 18:00:00 22,9 5,2 23,7 25,5 21,0 18,6 15 8 24 13 NE 1013,6 65 60 0,0
20.09.2020 17:00:00 23,6 2,9 26,1 27,1 20,5 18,6 14 7 24 13 ENE 1013,6 61 60 0,0
20.09.2020 16:00:00 24,5 5,4 29,1 27,4 20,1 18,6 9 5 24 13 E 1013,5 38 60 0,0
20.09.2020 15:00:00 23,7 4,9 29,1 25,4 19,7 18,6 13 7 29 16 NE 1013,9 70 53 0,0
20.09.2020 14:00:00 21,7 6,4 24,5 24,5 19,3 18,6 7 4 19 11 E 1014,7 58 51 0,0
20.09.2020 13:00:00 21,2 7,0 25,8 24,0 19,0 18,6 11 6 23 12 NE 1015,0 71 59 0,0
20.09.2020 12:00:00 18,0 6,7 20,5 22,0 18,8 18,6 10 5 20 11 ENE 1015,8 74 55 0,0
20.09.2020 11:00:00 17,4 6,6 20,0 19,8 18,8 18,6 14 8 24 13 ENE 1016,1 55 60 0,0
20.09.2020 10:00:00 15,8 5,3 17,8 17,5 18,9 18,6 15 8 26 14 ENE 1015,9 74 58 0,0
20.09.2020 09:00:00 14,6 5,0 14,4 15,5 19,1 18,6 11 6 23 13 ENE 1015,9 65 26 0,0
20.09.2020 08:00:00 14,2 4,8 13,2 14,8 19,4 18,6 20 11 27 15 NE 1015,5 67 7 0,0
20.09.2020 07:00:00 13,9 4,9 11,9 15,1 19,6 18,6 16 9 25 13 NE 1015,6 63 0 0,0
20.09.2020 06:00:00 13,8 5,7 11,7 15,5 19,9 18,6 11 6 21 11 ENE 1015,6 71 0 0,0
20.09.2020 05:00:00 15,6 6,0 13,4 16,0 20,2 18,6 13 7 18 10 NE 1015,8 75 0 0,0
20.09.2020 04:00:00 15,2 6,0 12,0 16,7 20,5 18,6 5 3 16 9 ENE 1016,1 65 0 0,0
20.09.2020 03:00:00 16,5 5,8 13,9 17,1 20,7 18,6 10 5 15 8 NE 1016,0 75 0 0,0
20.09.2020 02:00:00 16,3 5,8 13,7 17,9 21,0 18,6 7 4 22 12 ENE 1015,8 73 0 0,0
20.09.2020 01:00:00 17,3 5,9 15,5 18,4 21,3 18,6 14 8 23 12 NE 1015,8 70 0 0,0
20.09.2020 00:00:00 17,9 5,7 16,7 19,2 21,6 18,7 18 10 25 14 NE 1016,1 65 0 0,0
19.09.2020 23:00:00 18,4 5,2 16,8 19,7 21,9 18,7 18 10 29 15 NE 1016,1 72 0 0,0
19.09.2020 22:00:00 18,6 5,8 17,3 20,6 22,1 18,7 16 8 21 12 ENE 1016,2 60 0 0,0
19.09.2020 21:00:00 19,4 6,8 17,4 21,8 22,3 18,7 9 5 24 13 ENE 1015,9 57 0 0,0
19.09.2020 20:00:00 21,0 7,4 19,6 23,4 22,3 18,7 14 8 23 12 ENE 1015,0 64 0 0,0
19.09.2020 19:00:00 22,8 8,2 21,8 25,6 22,1 18,7 12 6 26 14 E 1015,0 75 31 0,0
19.09.2020 18:00:00 25,5 11,3 27,1 28,0 21,7 18,7 11 6 19 10 ESE 1014,3 65 60 0,0
19.09.2020 17:00:00 26,9 11,0 29,8 29,5 21,2 18,7 4 2 22 12 W 1014,3 37 60 0,0
19.09.2020 16:00:00 26,6 11,4 30,2 30,1 20,5 18,7 10 5 26 14 WNW 1015,1 75 60 0,0
19.09.2020 15:00:00 25,0 9,8 29,6 29,8 19,9 18,7 8 5 15 8 ESE 1016,2 54 60 0,0
19.09.2020 14:00:00 22,6 8,4 27,9 28,5 19,3 18,7 8 5 16 9 ESE 1017,3 59 60 0,0
19.09.2020 13:00:00 21,9 8,0 26,4 26,3 18,8 18,7 6 3 16 9 ENE 1017,6 61 60 0,0
19.09.2020 12:00:00 20,0 6,9 25,3 23,3 18,5 18,7 10 5 21 11 E 1018,3 75 60 0,0
19.09.2020 11:00:00 17,9 6,2 21,4 20,2 18,4 18,7 11 6 24 13 ENE 1018,9 75 60 0,0
19.09.2020 10:00:00 15,6 5,0 18,5 17,5 18,4 18,7 16 8 24 13 ENE 1019,1 75 60 0,0
19.09.2020 09:00:00 13,7 4,5 15,0 15,2 18,6 18,7 18 10 26 14 NE 1019,2 75 60 0,0
19.09.2020 08:00:00 12,3 4,4 11,8 14,2 18,9 18,7 17 9 30 16 ENE 1019,3 75 14 0,0
19.09.2020 07:00:00 12,6 4,8 11,3 14,4 19,1 18,7 21 11 29 16 NE 1018,6 71 0 0,0
19.09.2020 06:00:00 13,0 5,6 11,6 14,9 19,4 18,7 20 11 29 16 NE 1018,4 70 0 0,0
19.09.2020 05:00:00 13,4 6,3 12,1 15,3 19,7 18,7 19 10 30 16 NE 1018,8 62 0 0,0
19.09.2020 04:00:00 14,0 7,1 12,5 15,8 19,9 18,7 19 10 27 15 NE 1019,4 59 0 0,0
19.09.2020 03:00:00 14,5 7,5 12,9 16,3 20,2 18,7 18 10 29 16 NE 1019,6 60 0 0,0
19.09.2020 02:00:00 15,2 7,6 13,9 16,9 20,4 18,7 20 11 32 17 NE 1019,9 61 0 0,0
19.09.2020 01:00:00 16,1 7,8 14,6 17,4 20,7 18,7 22 12 33 18 ENE 1019,9 64 0 0,0
19.09.2020 00:00:00 16,8 7,8 15,4 18,0 21,0 18,7 24 13 33 18 ENE 1019,9 69 0 0,0
18.09.2020 23:00:00 17,2 8,1 15,7 18,7 21,2 18,7 22 12 31 17 NE 1020,0 66 0 0,0
18.09.2020 22:00:00 17,8 8,5 16,3 19,5 21,4 18,7 20 11 33 18 ENE 1020,1 61 0 0,0
18.09.2020 21:00:00 18,8 9,2 17,4 20,6 21,6 18,7 21 11 34 18 ENE 1020,1 61 0 0,0
18.09.2020 20:00:00 20,2 9,8 18,9 21,9 21,6 18,7 18 10 36 19 ENE 1019,7 59 18 0,0
18.09.2020 19:00:00 21,6 9,8 21,3 23,6 21,4 18,7 24 13 41 22 E 1019,5 46 60 0,0
18.09.2020 18:00:00 22,4 9,7 23,3 25,2 21,1 18,7 26 14 40 22 E 1019,4 53 60 0,0
18.09.2020 17:00:00 22,8 9,8 24,9 26,4 20,7 18,7 25 14 40 21 E 1019,4 56 60 0,0
18.09.2020 16:00:00 22,5 9,6 25,6 26,8 20,2 18,7 28 15 42 23 E 1019,8 67 60 0,0
18.09.2020 15:00:00 22,1 9,5 25,8 26,8 19,7 18,7 26 14 44 24 E 1020,5 42 60 0,0
18.09.2020 14:00:00 21,4 9,3 25,7 25,9 19,2 18,7 26 14 41 22 E 1020,8 47 60 0,0
18.09.2020 13:00:00 19,8 9,2 23,7 24,1 18,9 18,7 21 12 40 22 E 1021,5 39 60 0,0
18.09.2020 12:00:00 18,5 8,8 22,4 22,0 18,6 18,7 23 13 40 22 E 1022,0 56 60 0,0
18.09.2020 11:00:00 16,5 8,3 19,9 19,4 18,5 18,7 23 12 46 25 ENE 1022,6 75 60 0,0
18.09.2020 10:00:00 14,8 7,3 17,7 16,7 18,6 18,7 22 12 39 21 NE 1022,8 59 60 0,0
18.09.2020 09:00:00 12,5 6,4 13,5 14,6 18,9 18,7 20 11 32 18 ENE 1022,7 75 60 0,0
18.09.2020 08:00:00 11,0 6,0 10,6 13,6 19,1 18,6 22 12 34 19 NE 1022,9 58 10 0,0

tt = Température de l'air
td = dewpoint
tt 5cm = Température de l'air 5cm
tt -5cm = Température de l'air -5cm
tt -20cm = Température de l'air -20cm
tt -100cm = Température de l'air -100cm
ff = Vitesse du vent
fx = gusts
dd = Direction du vent
ppp = reduced air pressure
vv = visibility
sd = Ensoleillement
rr = Quantités de précipitations

stations d'obs. à proximité